GSAT0223 (49809 NORAD) Tracking and Keplerian Element Data

This shows tracking and keplerian element data for the satellite.

Feedback or suggestion? Click here.




ElementValue
Catalog49809
NameGSAT0223
Epoch Orbit57
Epoch Day8.22772889
Epoch Year2022
RAAN25.4353
Inclination57.1187
Eccentricity0.0022745
Argument of Perigee79.5494
Mean Anonmoly282.3768
Mean Motion1.6852527
Decay Rate-8.5E-07
L11 49809U 21116A 22008.22772889 -.00000085 00000+0 00000+0 0 9990
L22 49809 57.1187 25.4353 0022745 79.5494 282.3768 1.68525270 575

Live tracking and technical data element details for GSAT0223 (NORAD 49809). GSAT0223 can be tracked NOW for your location showing map with azimuth and elevation plus other details from your city location.

Track the satellite on the map from your city or location and see movement details for azimuth, elevation, latitude, longitude, range, height, and movement on the map or in text.







IsCatalogInMostPopularTable: catalog: 49809, numindb: 28
Update: records affected: 1



GetName: 49809 GSAT0223

Hit Count: updated at: Thu, 20 Jan 2022 18:05:16 GMT